FW8473 Weather Reports


time (UTC)temp
F
wind
direction
speed
knots
gust
knots
rain 1hr
in
rain 24hr
in
rain mn
in
humidity
%
barometer
mb
20260506114028 40 0 0.0 0.9 0.00 0.03 0.00 82 1017.9
20260506113528 40 0 0.0 0.9 0.00 0.03 0.00 82 1017.9
20260506113035 40 0 0.0 0.0 0.00 0.03 0.00 81 1017.9
20260506112529 41 0 0.0 0.0 0.00 0.03 0.00 81 1017.8
20260506112028 41 0 0.0 0.0 0.00 0.03 0.00 80 1017.9
20260506111541 41 0 0.0 0.0 0.00 0.03 0.00 80 1017.8
20260506111032 41 0 0.0 0.0 0.00 0.03 0.00 79 1017.9
20260506110529 41 0 0.0 0.0 0.00 0.03 0.00 79 1017.8
20260506110038 42 0 0.0 0.0 0.00 0.03 0.00 79 1017.7
20260506105531 42 0 0.0 0.0 0.00 0.03 0.00 79 1017.6
20260506105027 42 0 0.0 0.0 0.00 0.03 0.00 79 1017.6
20260506104545 42 0 0.0 0.0 0.00 0.03 0.00 78 1017.5
20260506104027 42 0 0.0 0.9 0.00 0.03 0.00 77 1017.4
20260506103529 43 0 0.0 0.9 0.00 0.03 0.00 77 1017.4
20260506103044 43 0 0.0 0.9 0.00 0.03 0.00 77 1017.4
20260506102531 43 0 0.0 0.9 0.00 0.03 0.00 77 1017.4
20260506102029 43 0 0.0 0.9 0.00 0.03 0.00 77 1017.3
20260506101536 44 0 0.0 0.0 0.00 0.03 0.00 76 1017.1
20260506101028 44 0 0.0 0.0 0.00 0.03 0.00 76 1017.1
20260506100530 44 0 0.0 0.0 0.00 0.03 0.00 75 1017.1
20260506100035 44 0 0.0 0.0 0.00 0.03 0.00 74 1017.1
20260506095528 44 0 0.0 0.0 0.00 0.03 0.00 74 1017.0
20260506095030 45 0 0.0 0.0 0.00 0.03 0.00 74 1017.0
20260506094541 45 0 0.0 0.0 0.00 0.03 0.00 73 1017.0
20260506094027 45 0 0.0 0.0 0.00 0.03 0.00 73 1017.0
20260506093528 45 0 0.0 0.0 0.00 0.03 0.00 73 1017.1
20260506093036 45 0 0.0 0.0 0.00 0.03 0.00 72 1017.0
20260506092529 46 0 0.0 0.0 0.00 0.03 0.00 72 1017.0
20260506092029 46 0 0.0 0.0 0.00 0.03 0.00 72 1017.0
20260506091537 46 0 0.0 0.0 0.00 0.03 0.00 71 1017.0
20260506091029 47 0 0.0 0.0 0.00 0.03 0.00 71 1017.1
20260506090528 47 0 0.0 0.0 0.00 0.03 0.00 71 1017.1
20260506090043 47 0 0.0 0.0 0.00 0.03 0.00 71 1017.1
20260506085532 47 0 0.0 0.0 0.00 0.03 0.00 70 1017.1
20260506085028 48 0 0.0 0.0 0.00 0.03 0.00 69 1017.2
20260506084610 48 0 0.0 0.0 0.00 0.03 0.00 69 1017.1
20260506084028 48 0 0.0 0.0 0.00 0.03 0.00 69 1017.0
20260506083530 48 0 0.0 0.0 0.00 0.03 0.00 69 1017.1
20260506083040 48 0 0.0 0.0 0.00 0.03 0.00 69 1017.1
20260506082527 49 0 0.0 0.0 0.00 0.03 0.00 69 1017.1
20260506082029 49 0 0.0 1.7 0.00 0.03 0.00 68 1017.2
20260506081549 49 0 0.0 1.7 0.00 0.03 0.00 68 1017.2
20260506081032 49 0 0.0 1.7 0.00 0.03 0.00 67 1017.3
20260506080529 49 0 0.0 5.2 0.00 0.03 0.00 69 1017.2
20260506073528 49 354 3.5 5.2 0.00 0.03 0.00 70 1017.2
20260506073044 49 354 1.7 5.2 0.00 0.03 0.00 73 1017.3
20260506072527 49 0 0.0 0.9 0.00 0.03 0.00 74 1017.3
20260506072029 49 0 0.0 0.9 0.00 0.03 0.00 75 1017.3
20260506071541 49 0 0.0 0.9 0.00 0.03 0.00 75 1017.2
20260506071028 49 0 0.0 0.0 0.00 0.03 0.00 75 1017.1
20260506070528 50 0 0.0 0.0 0.00 0.03 0.00 75 1017.2
20260506062028 51 0 0.0 0.0 0.00 0.03 0.00 71 1016.9
20260506061543 51 0 0.0 1.7 0.00 0.03 0.00 71 1016.8
20260506061028 51 0 0.0 3.5 0.00 0.03 0.00 71 1016.8
20260506060531 51 354 0.0 3.5 0.00 0.03 0.00 71 1016.8
20260506051029 53 0 0.0 1.7 0.00 0.03 0.03 68 1016.3
20260506050529 53 0 0.0 1.7 0.00 0.03 0.03 67 1016.3
20260506045028 54 0 0.0 3.5 0.00 0.03 0.03 65 1016.3
20260506044538 54 354 0.9 2.6 0.00 0.03 0.03 64 1016.4
20260506044028 54 0 0.0 7.0 0.00 0.03 0.03 64 1016.4
20260506043533 54 0 1.7 7.0 0.00 0.03 0.03 64 1016.4
20260506043040 54 354 3.5 7.0 0.00 0.03 0.03 63 1016.4
20260506042528 55 354 1.7 5.2 0.00 0.03 0.03 63 1016.3
20260506042029 55 0 0.0 7.8 0.00 0.03 0.03 62 1016.3
20260506041537 55 354 3.5 7.8 0.00 0.03 0.03 62 1016.0
20260506041028 55 354 3.5 7.0 0.00 0.03 0.03 62 1015.8
20260506040531 55 0 1.7 7.8 0.00 0.03 0.03 61 1015.9
20260506040038 56 354 2.6 7.8 0.00 0.03 0.03 61 1015.8
20260506035528 56 354 2.6 9.6 0.00 0.03 0.03 61 1015.7
20260506035028 56 354 3.5 9.6 0.00 0.03 0.03 60 1015.5
20260506034536 56 354 5.2 9.6 0.00 0.03 0.03 60 1015.4
20260506034029 56 354 3.5 9.6 0.00 0.03 0.03 60 1015.2
20260506033529 56 354 5.2 10.4 0.00 0.03 0.03 60 1014.9
20260506033039 56 354 6.1 10.4 0.00 0.03 0.03 62 1014.8
20260506032528 56 354 4.3 8.7 0.00 0.03 0.03 63 1014.7
20260506032028 56 354 3.5 8.7 0.00 0.03 0.03 64 1014.5
20260506031541 56 354 3.5 7.0 0.00 0.03 0.03 64 1014.4
20260506031029 57 354 0.9 2.6 0.00 0.03 0.03 64 1014.3
20260506030529 57 0 0.0 0.0 0.00 0.03 0.03 62 1014.0
20260506030035 57 0 0.0 0.0 0.00 0.03 0.03 62 1013.9
20260506025529 57 0 0.0 0.0 0.00 0.03 0.03 61 1013.9
20260506025028 58 0 0.0 0.0 0.00 0.03 0.03 61 1013.8
20260506024544 58 0 0.0 0.0 0.00 0.03 0.03 60 1013.6
20260506024028 58 0 0.0 0.0 0.00 0.03 0.03 59 1013.5
20260506023529 58 0 0.0 0.0 0.00 0.03 0.03 59 1013.5
20260506023058 58 0 0.0 0.0 0.00 0.03 0.03 59 1013.5
20260506022530 59 0 0.0 0.0 0.00 0.03 0.03 58 1013.5
20260506022029 59 0 0.0 0.9 0.00 0.03 0.03 58 1013.3
20260506021602 59 0 0.0 0.9 0.00 0.03 0.03 58 1013.3
20260506021030 60 0 0.0 0.9 0.00 0.03 0.03 57 1013.2
20260506020528 60 0 0.0 0.0 0.00 0.03 0.03 56 1012.9
20260506020036 60 0 0.0 0.0 0.00 0.03 0.03 55 1012.9
20260506015529 61 0 0.0 1.7 0.00 0.03 0.03 54 1012.5
20260506015031 61 0 0.0 1.7 0.00 0.03 0.03 54 1012.5
20260506014536 61 0 0.0 2.6 0.00 0.03 0.03 53 1012.6
20260506014028 61 0 0.0 2.6 0.00 0.03 0.03 54 1012.5
20260506013528 61 0 0.0 2.6 0.00 0.03 0.03 53 1012.6
20260506013050 61 354 0.9 2.6 0.00 0.03 0.03 53 1012.6
20260506012529 61 354 0.9 3.5 0.00 0.03 0.03 52 1012.5
20260506012029 62 0 0.9 4.3 0.00 0.03 0.03 52 1012.7
20260506011546 62 354 1.7 4.3 0.00 0.03 0.03 51 1012.7
20260506011028 63 354 1.7 4.3 0.00 0.03 0.03 51 1012.7
20260506010528 63 354 0.9 3.5 0.00 0.03 0.03 51 1012.7
20260506010037 63 354 0.0 2.6 0.00 0.03 0.03 49 1012.6
20260506005528 63 0 0.0 0.9 0.00 0.03 0.03 48 1012.5
20260506005032 63 0 0.0 3.5 0.00 0.03 0.03 48 1012.3
20260506004535 64 0 0.0 3.5 0.00 0.03 0.03 47 1012.2
20260506004029 64 354 0.0 2.6 0.00 0.03 0.03 47 1012.3
20260506003528 64 0 0.9 2.6 0.00 0.03 0.03 46 1012.3
20260506003042 64 354 0.0 3.5 0.00 0.03 0.03 45 1012.4
20260506002528 65 0 0.9 4.3 0.00 0.03 0.03 45 1012.4
20260506002031 66 354 1.7 4.3 0.00 0.03 0.03 44 1012.3
20260506001559 66 354 1.7 5.2 0.00 0.03 0.03 44 1012.3
20260506001028 66 354 1.7 7.0 0.00 0.03 0.03 45 1012.2
20260506000530 66 354 1.7 7.0 0.00 0.03 0.03 45 1012.1
20260506000038 66 354 1.7 7.0 0.00 0.03 0.03 43 1012.1
20260505235528 66 354 0.9 7.0 0.00 0.03 0.03 46 1012.1
20260505235028 65 0 0.9 7.0 0.00 0.03 0.03 46 1012.3
20260505234536 64 354 3.5 7.0 0.00 0.03 0.03 47 1012.5
20260505234029 63 354 1.7 5.2 0.00 0.03 0.03 47 1012.4
20260505233528 63 354 2.6 7.8 0.00 0.03 0.03 47 1012.4
20260505233037 64 354 1.7 7.8 0.00 0.03 0.03 48 1012.5
20260505232531 63 354 4.3 9.6 0.00 0.03 0.03 48 1012.6
20260505232030 63 354 1.7 9.6 0.00 0.03 0.03 50 1012.6
20260505231600 63 354 2.6 11.3 0.00 0.03 0.03 51 1012.8
20260505231028 63 354 5.2 11.3 0.00 0.03 0.03 51 1012.7
20260505230528 62 354 4.3 8.7 0.00 0.03 0.03 52 1012.7
20260505230049 62 354 5.2 8.7 0.00 0.03 0.03 51 1012.8
20260505225528 63 354 5.2 8.7 0.00 0.03 0.03 49 1012.8
20260505225028 63 354 3.5 7.8 0.00 0.03 0.03 48 1012.6
20260505224536 63 354 3.5 10.4 0.00 0.03 0.03 49 1012.8
20260505224027 62 354 5.2 10.4 0.00 0.03 0.03 52 1012.8
20260505223528 61 354 5.2 11.3 0.00 0.03 0.03 53 1012.8
20260505223035 61 354 7.0 13.9 0.00 0.03 0.03 55 1012.9
20260505222528 61 355 7.0 13.9 0.00 0.03 0.03 55 1013.1
20260505222030 60 355 7.8 14.8 0.00 0.03 0.03 59 1013.2
20260505221536 61 356 7.8 14.8 0.00 0.03 0.03 59 1013.4
20260505221028 61 356 7.8 14.8 0.00 0.03 0.03 58 1013.4
20260505220528 61 358 9.6 14.8 0.00 0.03 0.03 57 1013.4
20260505220045 62 357 7.8 13.0 0.00 0.03 0.03 58 1013.5
20260505215528 61 357 6.1 11.3 0.00 0.03 0.03 61 1013.6
20260505215028 60 357 6.1 13.0 0.00 0.03 0.03 60 1013.6
20260505214552 60 358 6.1 13.0 0.00 0.03 0.03 61 1013.8
20260505214027 61 358 7.0 11.3 0.00 0.03 0.03 61 1013.9
20260505213527 62 358 6.1 13.0 0.00 0.03 0.03 59 1013.7
20260505213040 62 359 6.1 13.0 0.00 0.03 0.03 56 1013.7
20260505212529 62 360 6.1 9.6 0.00 0.03 0.03 55 1013.3
20260505212030 62 360 6.1 12.2 0.00 0.03 0.03 55 1013.2
20260505211536 62 360 5.2 12.2 0.00 0.03 0.03 56 1013.1
20260505211029 63 360 6.1 12.2 0.00 0.03 0.03 54 1013.0
20260505210530 64 3 4.3 12.2 0.00 0.03 0.03 55 1013.1
20260505210044 64 360 3.5 5.2 0.00 0.03 0.03 54 1013.1
20260505205532 64 360 0.0 5.2 0.00 0.03 0.03 58 1013.3
20260505205031 64 0 0.9 5.2 0.00 0.03 0.03 57 1013.2
20260505204541 63 360 2.6 5.2 0.00 0.03 0.03 65 1013.3
20260505204031 62 0 1.7 4.3 0.00 0.03 0.03 71 1013.3
20260505203528 62 3 1.7 5.2 0.00 0.03 0.03 70 1013.7
20260505203053 61 0 0.9 7.8 0.00 0.03 0.03 66 1014.1
20260505202531 62 3 3.5 7.8 0.00 0.03 0.03 56 1014.4
20260505202031 62 360 3.5 7.8 0.00 0.03 0.03 56 1014.3
20260505201544 62 360 2.6 7.8 0.00 0.03 0.03 54 1014.2
20260505201029 63 360 3.5 9.6 0.00 0.03 0.03 55 1013.9
20260505200532 63 360 4.3 9.6 0.00 0.03 0.03 53 1013.8
20260505200045 64 360 1.7 7.8 0.00 0.03 0.03 53 1013.8
20260505195528 64 360 1.7 7.8 0.00 0.03 0.03 54 1013.8
20260505195028 63 360 3.5 7.8 0.00 0.03 0.03 57 1013.9
20260505194543 61 0 0.0 9.6 0.00 0.03 0.03 58 1013.7
20260505194031 61 360 2.6 9.6 0.00 0.03 0.03 59 1013.8
20260505193531 61 360 3.5 11.3 0.00 0.03 0.03 60 1013.9
20260505193042 62 360 5.2 11.3 0.00 0.03 0.03 60 1013.9
20260505192528 62 360 6.1 12.2 0.00 0.03 0.03 60 1014.1
20260505192028 61 360 5.2 12.2 0.00 0.03 0.03 64 1014.1
20260505191541 60 3 6.1 12.2 0.00 0.03 0.03 67 1014.4
20260505191028 59 360 6.1 11.3 0.00 0.03 0.03 69 1014.3
20260505190528 59 360 5.2 11.3 0.00 0.03 0.03 73 1014.5
20260505190039 58 360 4.3 9.6 0.00 0.03 0.03 75 1014.4
20260505185528 58 3 4.3 10.4 0.00 0.03 0.03 76 1014.7
20260505185028 58 3 4.3 12.2 0.00 0.03 0.03 75 1014.8
20260505184538 59 360 4.3 12.2 0.00 0.03 0.03 70 1014.9
20260505184034 60 360 4.3 7.8 0.00 0.03 0.03 65 1014.5
20260505183529 61 25 2.6 7.0 0.00 0.03 0.03 59 1014.5
20260505183043 61 0 0.0 6.1 0.00 0.03 0.03 57 1014.3
20260505182533 62 27 0.9 3.5 0.00 0.03 0.03 59 1014.3
20260505182028 62 0 0.0 3.5 0.00 0.03 0.03 57 1014.5
20260505181543 61 0 0.9 4.3 0.00 0.03 0.03 60 1014.5
20260505181032 61 0 0.0 5.2 0.00 0.03 0.03 60 1014.6
20260505180531 60 29 1.7 5.2 0.00 0.03 0.03 63 1014.6
20260505180039 59 31 0.9 2.6 0.00 0.03 0.03 62 1014.8
20260505175531 59 31 0.0 5.2 0.00 0.03 0.03 63 1014.8
20260505175029 59 32 0.0 5.2 0.01 0.03 0.03 63 1014.9
20260505174542 59 0 1.7 5.2 0.01 0.03 0.03 66 1015.0
20260505174028 58 0 0.0 3.5 0.01 0.03 0.03 64 1015.1
20260505173527 57 33 0.0 4.3 0.01 0.03 0.03 67 1015.1
20260505173043 57 0 1.7 4.3 0.01 0.03 0.03 67 1015.1
20260505172528 57 33 0.9 7.8 0.01 0.03 0.03 71 1015.0
20260505172028 57 33 2.6 7.8 0.01 0.03 0.03 70 1015.3
20260505171537 56 33 1.7 5.2 0.01 0.03 0.03 73 1015.4
20260505171029 56 32 1.7 5.2 0.02 0.03 0.03 75 1015.5
20260505170528 56 0 0.0 2.6 0.02 0.03 0.03 78 1015.5
20260505170045 55 35 0.0 1.7 0.02 0.03 0.03 80 1015.6
20260505165528 54 35 0.0 1.7 0.02 0.03 0.03 80 1015.5
20260505165028 54 0 0.0 0.9 0.01 0.02 0.02 83 1015.5
20260505164544 53 0 0.0 2.6 0.02 0.02 0.02 81 1015.6
20260505164025 53 0 0.0 2.6 0.02 0.02 0.02 82 1015.6
20260505163530 53 35 0.0 2.6 0.02 0.02 0.02 81 1015.7
20260505163037 53 34 0.0 2.6 0.02 0.02 0.02 82 1015.6
20260505162530 52 34 0.9 2.6 0.02 0.02 0.02 82 1015.6
20260505162028 52 0 0.0 2.6 0.02 0.02 0.02 82 1015.5
20260505161537 52 31 0.0 2.6 0.02 0.02 0.02 81 1015.5
20260505161029 52 0 0.0 5.2 0.01 0.01 0.01 79 1015.6
20260505160529 52 0 0.0 5.2 0.01 0.01 0.01 78 1015.7
20260505153043 58 0 0.9 5.2 0.00 0.00 0.00 62 1015.3
20260505152529 58 360 1.7 5.2 0.00 0.00 0.00 59 1015.3
20260505152028 58 360 0.9 3.5 0.00 0.00 0.00 57 1015.0
20260505151555 57 3 0.0 2.6 0.00 0.00 0.00 60 1015.1
20260505151029 57 360 0.0 1.7 0.00 0.00 0.00 66 1015.3
20260505150529 57 0 0.0 0.9 0.00 0.00 0.00 68 1015.3
20260505140528 58 0 0.0 0.9 0.00 0.00 0.00 56 1015.4
20260505125028 58 360 0.0 1.7 0.00 0.00 0.00 48 1014.5
20260505124540 58 0 0.0 0.0 0.00 0.00 0.00 47 1014.3
20260505124028 58 0 0.0 0.0 0.00 0.00 0.00 46 1014.3
20260505123528 58 0 0.0 0.0 0.00 0.00 0.00 48 1014.3
20260505123034 58 0 0.0 0.9 0.00 0.00 0.00 47 1014.3
20260505122530 58 0 0.0 0.9 0.00 0.00 0.00 46 1014.4
20260505122028 58 0 0.0 0.9 0.00 0.00 0.00 45 1014.3
20260505121536 58 0 0.0 1.7 0.00 0.00 0.00 44 1014.3
20260505121029 58 0 0.0 1.7 0.00 0.00 0.00 44 1014.3
20260505120528 58 0 0.0 1.7 0.00 0.00 0.00 44 1014.5
20260505120039 59 0 0.0 0.0 0.00 0.00 0.00 44 1014.3
20260505115528 59 0 0.0 0.0 0.00 0.00 0.00 44 1014.4
20260505115025 59 0 0.0 0.9 0.00 0.00 0.00 44 1014.3
20260505114542 60 0 0.0 2.6 0.00 0.00 0.00 43 1014.1